This is the latest recevied weather packets stored in our database for station/object K4LEN. If no packets are shown the sender has not sent any weather packets the latest 1 day(s).
| Time | Temp. | Humidity | Pressure | Rain* | Wind** | Luminosity | Snow |
|---|---|---|---|---|---|---|---|
| 1778057713 | 20.56° C | 87% | 1011.4 hPa | 0 mm | - | 10 W/m² | - |
| 1778057112 | 20.56° C | 87% | 1011.7 hPa | 0 mm | - | 10 W/m² | - |
| 1778055311 | 20.56° C | 85% | 1011.5 hPa | 0 mm | - | 6 W/m² | - |
| 1778054711 | 20.56° C | 85% | 1011.7 hPa | 0 mm | - | 7 W/m² | - |
| 1778054106 | 20.56° C | 85% | 1011.5 hPa | 0 mm | - | 7 W/m² | - |
| 1778053506 | 21.11° C | 84% | 1011.8 hPa | 0 mm | - | 7 W/m² | - |
| 1778051171 | 20.56° C | 83% | 1011.3 hPa | 0 mm | - | 6 W/m² | - |
| 1778049965 | 20.56° C | 83% | 1010.9 hPa | 0 mm | - | 6 W/m² | - |
| 1778048158 | 20.56° C | 82% | 1011 hPa | 0 mm | - | 6 W/m² | - |
| 1778047554 | 20.56° C | 82% | 1011.3 hPa | 0 mm | - | 7 W/m² | - |
| 1778046954 | 20.56° C | 82% | 1011.6 hPa | 0 mm | - | 8 W/m² | - |
| 1778045753 | 20.56° C | 81% | 1012.2 hPa | 0 mm | - | 8 W/m² | - |
| 1778044549 | 20.56° C | 80% | 1012.3 hPa | 0 mm | - | 9 W/m² | - |
| 1778043349 | 20.56° C | 79% | 1012.4 hPa | 0 mm | - | 10 W/m² | - |
| 1778042750 | 20.56° C | 79% | 1012.4 hPa | 0 mm | - | 7 W/m² | - |
| 1778042149 | 20.56° C | 79% | 1012.7 hPa | 0 mm | - | 9 W/m² | - |
| 1778041546 | 20.56° C | 78% | 1012.7 hPa | 0 mm | - | 7 W/m² | - |
| 1778040942 | 20.56° C | 78% | 1013 hPa | 0 mm | - | 10 W/m² | - |
| 1778039741 | 20.56° C | 78% | 1013.1 hPa | 0 mm | - | 9 W/m² | - |
| 1778039141 | 20.56° C | 78% | 1013.1 hPa | 0 mm | - | 10 W/m² | - |
| 1778038541 | 20.56° C | 78% | 1013.2 hPa | 0 mm | - | 7 W/m² | - |
| 1778037941 | 20.56° C | 78% | 1013.3 hPa | 0 mm | - | 7 W/m² | - |
| 1778037336 | 20.56° C | 77% | 1013.2 hPa | 0 mm | - | 8 W/m² | - |
| 1778036736 | 20.56° C | 77% | 1013.2 hPa | 0 mm | - | 6 W/m² | - |
| 1778036136 | 20.56° C | 77% | 1013.2 hPa | 0 mm | - | 9 W/m² | - |
* Rain latest hour (hover to see other rain measurements)
** Current wind speed in m/s (hover to see current wind gust speed)